STARLINK-29

decayed
NORAD ID: 44243 Int'l Des: 2019-029 Owner: SPXS Country: US Constellation: starlink
LEOCIRCULAR

关于 STARLINK-29

正在加载描述...

高度历史

Altitude vs Time

uPlot chart will show altitude changes over time

两行轨道根数

1 44243U 19029J 20287.71504568 .11982673 12791-4 10982-3 0 9997
2 44243 52.9786 228.8138 0008105 330.1078 31.0927 16.50981164 79283
Epoch: Oct 13, 2020 • Age: 43154 hours

当前状态

Position data unavailable
发射日期 May 24, 2019
运行时间 6.3 years
衰减日期 Oct 13, 2020
类型 internet

技术详情

分类 Payload
质量 227.00 kg
干质量 219.00 kg
总质量 227.00 kg
长度 0.20 m
直径 2.80 m
跨度 9.00 m
形状 Box + pan
制造商 SPXS
平台类型 Starlink
阶段状态 Reentered
所有者/国家 SPXS/US

大型星座

Loading constellations...